WZZ95PF EPGD-EDDH

Flight info

Callsign WZZ95PF
Flight time N/A
Altitude 34000
Route DEXIR T671 AGODU L733 BODLA Z717 PODUS L619 BUMIL/N0374F240 M748 RARUP
Aircraft A21N/M-SDE2E3FGHIRWXY/LB1

Departure

Time N/A
Airport Gdańsk Lech Wałęsa Airport (EPGD)

Arrival

Time 2026-04-23 11:47
Airport Hamburg Helmut Schmidt Airport (EDDH)
Time Latitude Longitude Altitude Speed Heading
2026-04-23 10:48 54.14006 17.16292 22857 ft 435 kts 249°
2026-04-23 10:48 54.12627 17.11629 23358 ft 437 kts 249°
2026-04-23 10:48 54.11266 17.07034 23815 ft 441 kts 249°
2026-04-23 10:48 54.09909 17.02326 24215 ft 442 kts 251°
2026-04-23 10:49 54.08891 16.97431 24607 ft 438 kts 261°
2026-04-23 10:49 54.08086 16.92412 25003 ft 439 kts 262°
2026-04-23 10:49 54.07295 16.87376 25381 ft 442 kts 262°
2026-04-23 10:49 54.06476 16.82298 25750 ft 446 kts 261°
2026-04-23 10:50 54.05638 16.77198 26111 ft 449 kts 261°
2026-04-23 10:50 54.04782 16.72067 26472 ft 452 kts 261°
2026-04-23 10:50 54.03917 16.66919 26833 ft 454 kts 261°
2026-04-23 10:50 54.03041 16.61739 27209 ft 457 kts 261°
2026-04-23 10:51 54.02158 16.56526 27565 ft 459 kts 261°
2026-04-23 10:51 54.01267 16.51290 27886 ft 461 kts 260°
2026-04-23 10:51 54.00374 16.46056 28297 ft 462 kts 260°
2026-04-23 10:51 53.99488 16.40870 28662 ft 464 kts 260°
2026-04-23 10:52 53.98584 16.35598 29001 ft 466 kts 260°
2026-04-23 10:52 53.97670 16.30300 29316 ft 468 kts 260°
2026-04-23 10:52 53.96750 16.24974 29625 ft 471 kts 260°
2026-04-23 10:52 53.95826 16.19622 29921 ft 473 kts 260°
2026-04-23 10:53 53.94857 16.14251 30219 ft 478 kts 257°
2026-04-23 10:53 53.93463 16.09068 30461 ft 489 kts 245°
2026-04-23 10:53 53.91638 16.04160 30691 ft 494 kts 241°
2026-04-23 10:53 53.89717 15.99300 30910 ft 497 kts 240°
2026-04-23 10:54 53.87785 15.94434 31152 ft 499 kts 240°
2026-04-23 10:54 53.85861 15.89542 31454 ft 499 kts 241°
2026-04-23 10:54 53.83948 15.84657 31823 ft 495 kts 240°
2026-04-23 10:54 53.82049 15.79801 32188 ft 493 kts 240°
2026-04-23 10:55 53.80152 15.74969 32450 ft 493 kts 240°
2026-04-23 10:55 53.78252 15.70133 32713 ft 493 kts 240°
2026-04-23 10:55 53.76354 15.65297 32975 ft 493 kts 240°
2026-04-23 10:55 53.74456 15.60470 33228 ft 493 kts 240°
2026-04-23 10:56 53.72550 15.55641 33474 ft 494 kts 240°
2026-04-23 10:56 53.70642 15.50816 33675 ft 495 kts 240°
2026-04-23 10:56 53.68752 15.46048 33889 ft 495 kts 239°
2026-04-23 10:56 53.66833 15.41222 34114 ft 495 kts 240°
2026-04-23 10:57 53.64949 15.36376 34231 ft 495 kts 240°
2026-04-23 10:57 53.63083 15.31497 34249 ft 494 kts 240°
2026-04-23 10:57 53.59350 15.21784 34226 ft 494 kts 240°
2026-04-23 10:58 53.55596 15.12100 34218 ft 494 kts 240°
2026-04-23 10:58 53.51828 15.02430 34225 ft 496 kts 240°
2026-04-23 10:59 53.48038 14.92721 34230 ft 497 kts 240°
2026-04-23 10:59 53.44227 14.83028 34228 ft 497 kts 240°
2026-04-23 11:00 53.40422 14.73353 34238 ft 497 kts 240°
2026-04-23 11:00 53.36606 14.63692 34239 ft 497 kts 239°
2026-04-23 11:01 53.32776 14.54041 34237 ft 498 kts 239°
2026-04-23 11:01 53.28948 14.44414 34230 ft 494 kts 240°
2026-04-23 11:02 53.27319 14.39396 34231 ft 490 kts 251°
2026-04-23 11:02 53.26161 14.34062 34239 ft 486 kts 256°
2026-04-23 11:02 53.24129 14.23289 34257 ft 486 kts 257°
2026-04-23 11:03 53.22066 14.12547 34250 ft 486 kts 256°
2026-04-23 11:03 53.19964 14.01807 34263 ft 486 kts 256°
2026-04-23 11:04 53.17868 13.91164 34247 ft 486 kts 256°
2026-04-23 11:04 53.15754 13.80454 34261 ft 486 kts 255°
2026-04-23 11:05 53.13632 13.69757 34267 ft 486 kts 255°
2026-04-23 11:05 53.11494 13.59068 34267 ft 486 kts 255°
2026-04-23 11:06 53.08263 13.43079 34278 ft 486 kts 255°
2026-04-23 11:07 53.06471 13.34231 34275 ft 486 kts 255°
2026-04-23 11:07 53.04304 13.23615 34272 ft 484 kts 254°
2026-04-23 11:08 53.02131 13.13021 34278 ft 485 kts 254°
2026-04-23 11:08 52.99935 13.02417 34279 ft 486 kts 253°
2026-04-23 11:09 52.97737 12.91814 34278 ft 486 kts 253°
2026-04-23 11:09 52.96073 12.81038 34269 ft 478 kts 270°
2026-04-23 11:10 52.96289 12.70119 34268 ft 473 kts 278°
2026-04-23 11:10 52.96699 12.59233 34276 ft 473 kts 277°
2026-04-23 11:11 52.97056 12.48328 34272 ft 473 kts 277°
2026-04-23 11:11 52.97393 12.37468 33705 ft 468 kts 277°
2026-04-23 11:11 52.97558 12.32069 32931 ft 468 kts 277°
2026-04-23 11:12 52.97722 12.26691 32281 ft 465 kts 277°
2026-04-23 11:12 52.97880 12.21363 31647 ft 461 kts 276°
2026-04-23 11:12 52.98030 12.16132 31068 ft 457 kts 276°
2026-04-23 11:12 52.98177 12.10885 30503 ft 453 kts 276°
2026-04-23 11:13 52.98324 12.05689 29853 ft 449 kts 276°
2026-04-23 11:13 52.98467 12.00537 29240 ft 444 kts 276°
2026-04-23 11:13 52.98603 11.95446 28650 ft 439 kts 276°
2026-04-23 11:13 52.98738 11.90361 28081 ft 433 kts 276°
2026-04-23 11:14 52.98866 11.85453 27532 ft 428 kts 276°
2026-04-23 11:14 52.99102 11.80577 26964 ft 420 kts 284°
2026-04-23 11:14 52.99803 11.75917 26415 ft 412 kts 290°
2026-04-23 11:14 53.00593 11.71367 25875 ft 407 kts 290°
2026-04-23 11:15 53.01373 11.66870 25361 ft 403 kts 289°
2026-04-23 11:15 53.02136 11.62410 24849 ft 400 kts 289°
2026-04-23 11:15 53.02882 11.57980 24327 ft 397 kts 289°
2026-04-23 11:15 53.03742 11.53661 23747 ft 392 kts 296°
2026-04-23 11:16 53.05072 11.49769 23027 ft 384 kts 312°
2026-04-23 11:16 53.06907 11.46628 22497 ft 374 kts 322°
2026-04-23 11:16 53.08872 11.43823 21932 ft 371 kts 323°
2026-04-23 11:16 53.10835 11.41082 21412 ft 366 kts 323°
2026-04-23 11:17 53.12771 11.38349 20869 ft 363 kts 323°
2026-04-23 11:17 53.14681 11.35620 20392 ft 359 kts 322°
2026-04-23 11:17 53.16568 11.32910 19878 ft 356 kts 322°
2026-04-23 11:17 53.18433 11.30224 19397 ft 352 kts 322°
2026-04-23 11:18 53.20279 11.27561 18924 ft 349 kts 322°
2026-04-23 11:18 53.22103 11.24935 18456 ft 344 kts 322°
2026-04-23 11:18 53.23906 11.22336 17970 ft 340 kts 322°
2026-04-23 11:18 53.25677 11.19767 17531 ft 334 kts 322°
2026-04-23 11:19 53.27414 11.17249 17116 ft 328 kts 322°
2026-04-23 11:19 53.29105 11.14801 16729 ft 322 kts 321°
2026-04-23 11:19 53.30812 11.12319 16351 ft 320 kts 321°
2026-04-23 11:19 53.32482 11.09881 15973 ft 321 kts 321°
2026-04-23 11:20 53.34153 11.07448 15613 ft 322 kts 321°
2026-04-23 11:20 53.35829 11.04998 15238 ft 319 kts 321°
2026-04-23 11:20 53.37498 11.02564 14883 ft 316 kts 321°
2026-04-23 11:20 53.39136 11.00134 14528 ft 314 kts 318°
2026-04-23 11:21 53.40652 10.97498 14181 ft 312 kts 315°
2026-04-23 11:21 53.42112 10.94823 13799 ft 310 kts 314°
2026-04-23 11:21 53.43557 10.92150 13404 ft 308 kts 314°
2026-04-23 11:21 53.44977 10.89516 13011 ft 301 kts 314°
2026-04-23 11:22 53.46371 10.86930 12599 ft 296 kts 314°
2026-04-23 11:22 53.47744 10.84388 12216 ft 291 kts 314°
2026-04-23 11:22 53.49093 10.81885 11821 ft 286 kts 314°
2026-04-23 11:22 53.50408 10.79437 11430 ft 278 kts 314°
2026-04-23 11:23 53.51679 10.77063 11084 ft 274 kts 314°
2026-04-23 11:23 53.52948 10.74686 10740 ft 273 kts 314°
2026-04-23 11:23 53.54209 10.72319 10386 ft 271 kts 314°
2026-04-23 11:23 53.55466 10.69961 10011 ft 270 kts 314°
2026-04-23 11:24 53.56712 10.67619 9618 ft 267 kts 314°
2026-04-23 11:24 53.57943 10.65304 9197 ft 262 kts 314°
2026-04-23 11:24 53.59151 10.63029 8796 ft 258 kts 314°
2026-04-23 11:24 53.60333 10.60798 8406 ft 253 kts 314°
2026-04-23 11:25 53.61495 10.58605 8023 ft 248 kts 314°
2026-04-23 11:25 53.62627 10.56464 7620 ft 241 kts 314°
2026-04-23 11:25 53.63727 10.54382 7201 ft 235 kts 314°
2026-04-23 11:25 53.64801 10.52348 6746 ft 230 kts 314°
2026-04-23 11:26 53.65852 10.50356 6231 ft 224 kts 314°
2026-04-23 11:26 53.66876 10.48409 5726 ft 220 kts 314°
2026-04-23 11:26 53.67869 10.46514 5253 ft 216 kts 314°
2026-04-23 11:26 53.68838 10.44657 4894 ft 204 kts 314°
2026-04-23 11:27 53.69756 10.42869 4712 ft 200 kts 314°
2026-04-23 11:27 53.70661 10.41060 4448 ft 198 kts 314°
2026-04-23 11:27 53.71535 10.39305 4172 ft 199 kts 314°
2026-04-23 11:27 53.72432 10.37531 3911 ft 198 kts 314°
2026-04-23 11:28 53.73340 10.35766 3656 ft 199 kts 314°
2026-04-23 11:28 53.74108 10.33826 3382 ft 203 kts 292°
2026-04-23 11:28 53.74180 10.31433 3126 ft 209 kts 266°
2026-04-23 11:28 53.73937 10.29034 2972 ft 202 kts 263°
2026-04-23 11:29 53.73689 10.26770 2947 ft 194 kts 264°
2026-04-23 11:29 53.73424 10.24528 2965 ft 196 kts 263°
2026-04-23 11:29 53.73180 10.22263 2981 ft 196 kts 264°
2026-04-23 11:29 53.72912 10.20009 2975 ft 198 kts 261°
2026-04-23 11:30 53.72344 10.17900 2816 ft 196 kts 242°
2026-04-23 11:30 53.71550 10.16081 2568 ft 190 kts 236°
2026-04-23 11:30 53.70727 10.14429 2309 ft 177 kts 235°
2026-04-23 11:30 53.69959 10.12875 2106 ft 168 kts 237°
2026-04-23 11:31 53.69225 10.11384 1872 ft 160 kts 236°
2026-04-23 11:31 53.68556 10.10027 1642 ft 140 kts 238°
2026-04-23 11:31 53.67968 10.08794 1394 ft 134 kts 236°
2026-04-23 11:31 53.67362 10.07592 1256 ft 135 kts 236°
2026-04-23 11:32 53.66764 10.06361 1058 ft 136 kts 236°
2026-04-23 11:32 53.66161 10.05157 853 ft 133 kts 237°
2026-04-23 11:32 53.65569 10.03949 685 ft 135 kts 237°
2026-04-23 11:32 53.64972 10.02758 523 ft 130 kts 237°
2026-04-23 11:33 53.64400 10.01558 353 ft 131 kts 235°
2026-04-23 11:33 53.63813 10.00431 183 ft 127 kts 237°
2026-04-23 11:33 53.63260 9.99246 73 ft 123 kts 226°
2026-04-23 11:33 53.62656 9.98078 287 ft 151 kts 234°
2026-04-23 11:34 53.61935 9.96613 1192 ft 168 kts 232°
2026-04-23 11:34 53.61106 9.95209 1850 ft 177 kts 230°
2026-04-23 11:34 53.60179 9.93699 2306 ft 193 kts 230°
2026-04-23 11:34 53.59155 9.92106 2767 ft 211 kts 221°
2026-04-23 11:35 53.57715 9.91213 3221 ft 235 kts 186°
2026-04-23 11:35 53.56058 9.91662 3812 ft 251 kts 155°
2026-04-23 11:35 53.54608 9.93326 4504 ft 256 kts 136°
2026-04-23 11:35 53.53287 9.95353 4903 ft 259 kts 134°
2026-04-23 11:36 53.51972 9.97426 5013 ft 259 kts 134°
2026-04-23 11:36 53.50656 9.99503 5035 ft 260 kts 134°
2026-04-23 11:36 53.49358 10.01598 5028 ft 258 kts 127°
2026-04-23 11:36 53.48531 10.04192 5018 ft 250 kts 98°
2026-04-23 11:37 53.48516 10.07021 5013 ft 240 kts 70°
2026-04-23 11:37 53.49257 10.09438 5004 ft 231 kts 47°
2026-04-23 11:37 53.50374 10.11324 5003 ft 227 kts 36°
2026-04-23 11:37 53.51614 10.12981 5002 ft 227 kts 34°
2026-04-23 11:38 53.52857 10.14596 4995 ft 226 kts 34°
2026-04-23 11:38 53.54104 10.16221 4995 ft 227 kts 34°
2026-04-23 11:38 53.55352 10.17848 4887 ft 226 kts 34°
2026-04-23 11:38 53.56596 10.19458 4673 ft 226 kts 34°
2026-04-23 11:39 53.57838 10.21042 4416 ft 223 kts 34°
2026-04-23 11:39 53.59071 10.22617 4162 ft 223 kts 34°
2026-04-23 11:39 53.60310 10.24191 3914 ft 223 kts 34°
2026-04-23 11:39 53.61562 10.25760 3664 ft 222 kts 34°
2026-04-23 11:40 53.62780 10.27290 3396 ft 215 kts 34°
2026-04-23 11:40 53.63950 10.28792 3127 ft 208 kts 34°
2026-04-23 11:40 53.65076 10.30231 2974 ft 197 kts 34°
2026-04-23 11:40 53.66156 10.31635 2957 ft 197 kts 34°
2026-04-23 11:41 53.67233 10.33051 2981 ft 196 kts 34°
2026-04-23 11:41 53.68322 10.34452 3048 ft 196 kts 30°
2026-04-23 11:41 53.69616 10.35034 3013 ft 196 kts 357°
2026-04-23 11:41 53.70856 10.34260 3001 ft 192 kts 328°
2026-04-23 11:42 53.71913 10.32894 3003 ft 194 kts 324°
2026-04-23 11:42 53.72957 10.31488 2995 ft 191 kts 324°
2026-04-23 11:42 53.73969 10.30051 2992 ft 191 kts 316°
2026-04-23 11:42 53.74522 10.27989 2984 ft 201 kts 283°
2026-04-23 11:43 53.74394 10.25593 3001 ft 205 kts 265°
2026-04-23 11:43 53.74122 10.23298 2987 ft 190 kts 263°
2026-04-23 11:43 53.73798 10.21247 2958 ft 178 kts 250°
2026-04-23 11:43 53.73144 10.19435 2956 ft 183 kts 239°
2026-04-23 11:44 53.72348 10.17741 2801 ft 185 kts 235°
2026-04-23 11:44 53.71541 10.16095 2577 ft 178 kts 234°
2026-04-23 11:44 53.70766 10.14518 2335 ft 172 kts 236°
2026-04-23 11:44 53.70006 10.12971 2132 ft 169 kts 236°
2026-04-23 11:45 53.69262 10.11460 1887 ft 164 kts 236°
2026-04-23 11:45 53.68559 10.10030 1652 ft 157 kts 237°
2026-04-23 11:45 53.67871 10.08634 1407 ft 149 kts 236°
2026-04-23 11:45 53.67233 10.07335 1199 ft 145 kts 236°
2026-04-23 11:46 53.66590 10.06021 1011 ft 144 kts 238°
2026-04-23 11:46 53.65962 10.04709 848 ft 142 kts 237°
2026-04-23 11:46 53.65317 10.03439 659 ft 143 kts 238°
2026-04-23 11:46 53.64682 10.02159 412 ft 140 kts 236°
2026-04-23 11:47 53.64056 10.00899 242 ft 139 kts 236°
2026-04-23 11:47 53.63444 9.99667 72 ft 137 kts 236°
2026-04-23 11:47 53.62901 9.98535 50 ft 99 kts 228°
2026-04-23 11:47 53.62585 9.97909 46 ft 41 kts 225°
2026-04-23 11:48 53.62451 9.97817 47 ft 19 kts 140°
2026-04-23 11:48 53.62439 9.97984 50 ft 10 kts 71°
2026-04-23 11:48 53.62453 9.98112 52 ft 12 kts 81°
2026-04-23 11:48 53.62468 9.98261 52 ft 14 kts 79°
2026-04-23 11:49 53.62487 9.98429 52 ft 15 kts 78°
2026-04-23 11:49 53.62501 9.98551 52 ft 16 kts 79°
2026-04-23 11:49 53.62523 9.98749 52 ft 18 kts 79°
2026-04-23 11:49 53.62548 9.98963 52 ft 19 kts 79°
2026-04-23 11:50 53.62574 9.99193 52 ft 21 kts 79°
2026-04-23 11:50 53.62610 9.99515 51 ft 17 kts 79°
2026-04-23 11:50 53.62619 9.99589 52 ft 9 kts 79°
2026-04-23 11:50 53.62632 9.99703 52 ft 11 kts 79°
2026-04-23 11:51 53.62664 9.99826 50 ft 13 kts 46°
2026-04-23 11:51 53.62743 9.99908 51 ft 14 kts 25°
2026-04-23 11:51 53.62835 9.99994 53 ft 16 kts 33°
2026-04-23 11:51 53.62882 10.00063 54 ft 3 kts 32°
2026-04-23 11:52 53.62907 10.00090 54 ft 5 kts 48°
2026-04-23 11:52 53.62909 10.00162 54 ft 7 kts 116°
2026-04-23 11:52 53.62901 10.00188 53 ft 2 kts 122°
2026-04-23 11:52 53.62893 10.00208 54 ft 0 kts 122°